Snow/Ice From: 16-12-2017 16:00 Until: 17-12-2017 16:00 warning for: Snow/Ice Level: Yellow info button

Although rather usual in this region, locally or potentially dangerous phenomena are expected. (such as local winds, summer thunderstorms, rising streams or high waves) Be aware and pay attention to the latest weather updates, especially if you carry out activities exposed to weather or close to a stream or shoreline. 


Meteo18 Weather Cam more information Meteo18 Weather Cam


Thunder radar more information blitzortung!


warning for Snow/Ice more information rain snow radar


Visit our other weather sites:

Template documentation
and downloads

And another site



Weather Underground History page Text

Daily Summary for June 7, 2017 Units:  Metric    English   Both
« Previous Day
Next Day »
Daily Weekly Monthly Yearly Custom
  High: Low: Average:
Temperature: 19.3 °C 9.4 °C 13.9 °C
Dew Point: 10.1 °C 7.1 °C 8.6 °C
Humidity: 92 % 50 % 72 %
Wind Speed: 25.7 km/h 0.0 km/h 7.4 km/h
Wind Gust: 30.6 km/h - -
Wind:- - WSW
Pressure: 1022.2 hPa 1016.8 hPa -
Precipitation: 0.0 mm    
Historical Graphs
 
 
Tabular Data for June 7, 2017
Time Temperature Dew Point Pressure Wind Wind Speed Wind Gust Humidity Rainfall Rate (Hourly)
00:02 11.0 °C 9.1 °C 1016.8 hPa SW 3.2 km/h 12.9 km/h 88 % 0.0 mm
00:07 10.8 °C 9.1 °C 1017.2 hPa SSW 6.4 km/h 11.3 km/h 89 % 0.0 mm
00:12 10.6 °C 9.0 °C 1017.2 hPa SSW 4.8 km/h 11.3 km/h 90 % 0.0 mm
00:17 10.4 °C 8.8 °C 1017.2 hPa South 6.4 km/h 11.3 km/h 90 % 0.0 mm
00:22 10.3 °C 8.9 °C 1017.2 hPa SSW 3.2 km/h 11.3 km/h 91 % 0.0 mm
00:27 10.3 °C 9.1 °C 1017.2 hPa SW 9.7 km/h 12.9 km/h 92 % 0.0 mm
00:32 10.4 °C 9.0 °C 1017.2 hPa SSW 3.2 km/h 16.1 km/h 91 % 0.0 mm
00:42 10.6 °C 9.0 °C 1017.2 hPa WSW 4.8 km/h 16.1 km/h 90 % 0.0 mm
00:47 10.7 °C 9.0 °C 1017.2 hPa WSW 8.0 km/h 20.9 km/h 89 % 0.0 mm
00:52 10.7 °C 9.0 °C 1017.2 hPa SW 14.5 km/h 20.9 km/h 89 % 0.0 mm
00:57 10.7 °C 8.8 °C 1017.5 hPa WSW 9.7 km/h 20.9 km/h 88 % 0.0 mm
01:02 10.7 °C 8.8 °C 1017.5 hPa WSW 8.0 km/h 20.9 km/h 88 % 0.0 mm
01:07 10.6 °C 8.7 °C 1017.5 hPa SW 6.4 km/h 20.9 km/h 88 % 0.0 mm
01:12 10.6 °C 8.7 °C 1017.8 hPa West 8.0 km/h 19.3 km/h 88 % 0.0 mm
01:17 10.6 °C 8.7 °C 1017.8 hPa SW 9.7 km/h 20.9 km/h 88 % 0.0 mm
01:22 10.6 °C 8.7 °C 1017.8 hPa WSW 6.4 km/h 20.9 km/h 88 % 0.0 mm
01:27 10.6 °C 8.5 °C 1017.8 hPa WSW 11.3 km/h 20.9 km/h 87 % 0.0 mm
01:32 10.6 °C 8.5 °C 1017.8 hPa SW 4.8 km/h 17.7 km/h 87 % 0.0 mm
01:37 10.6 °C 8.4 °C 1017.8 hPa West 9.7 km/h 17.7 km/h 86 % 0.0 mm
01:42 10.6 °C 8.4 °C 1017.8 hPa SW 9.7 km/h 17.7 km/h 86 % 0.0 mm
01:47 10.6 °C 8.4 °C 1017.8 hPa SSW 6.4 km/h 16.1 km/h 86 % 0.0 mm
01:52 10.4 °C 8.3 °C 1017.8 hPa SW 12.9 km/h 17.7 km/h 87 % 0.0 mm
01:57 10.3 °C 8.2 °C 1017.8 hPa WSW 8.0 km/h 17.7 km/h 87 % 0.0 mm
02:02 10.2 °C 8.3 °C 1017.8 hPa WSW 6.4 km/h 17.7 km/h 88 % 0.0 mm
02:07 10.2 °C 8.3 °C 1017.8 hPa WSW 6.4 km/h 14.5 km/h 88 % 0.0 mm
02:12 10.2 °C 8.1 °C 1017.8 hPa SW 8.0 km/h 14.5 km/h 87 % 0.0 mm
02:17 10.3 °C 8.2 °C 1017.8 hPa West 6.4 km/h 17.7 km/h 87 % 0.0 mm
02:22 10.2 °C 8.1 °C 1017.8 hPa SW 9.7 km/h 20.9 km/h 87 % 0.0 mm
02:27 10.2 °C 8.1 °C 1017.8 hPa SW 8.0 km/h 20.9 km/h 87 % 0.0 mm
02:32 10.1 °C 8.0 °C 1017.8 hPa SW 6.4 km/h 20.9 km/h 87 % 0.0 mm
02:37 10.0 °C 7.9 °C 1017.8 hPa WSW 6.4 km/h 20.9 km/h 87 % 0.0 mm
02:42 9.9 °C 8.0 °C 1018.2 hPa WSW 12.9 km/h 20.9 km/h 88 % 0.0 mm
02:47 9.9 °C 7.8 °C 1018.2 hPa SSW 8.0 km/h 17.7 km/h 87 % 0.0 mm
02:52 9.9 °C 7.8 °C 1018.2 hPa WSW 4.8 km/h 17.7 km/h 87 % 0.0 mm
02:57 9.9 °C 7.8 °C 1018.2 hPa West 6.4 km/h 17.7 km/h 87 % 0.0 mm
03:02 9.9 °C 7.8 °C 1018.2 hPa SW 12.9 km/h 17.7 km/h 87 % 0.0 mm
03:07 9.9 °C 7.8 °C 1018.2 hPa SW 6.4 km/h 19.3 km/h 87 % 0.0 mm
03:12 9.9 °C 7.8 °C 1018.2 hPa WSW 8.0 km/h 19.3 km/h 87 % 0.0 mm
03:17 9.9 °C 7.8 °C 1018.5 hPa WSW 9.7 km/h 19.3 km/h 87 % 0.0 mm
03:22 9.9 °C 7.8 °C 1018.5 hPa WSW 6.4 km/h 17.7 km/h 87 % 0.0 mm
03:27 9.8 °C 7.7 °C 1018.2 hPa SSW 6.4 km/h 17.7 km/h 87 % 0.0 mm
03:32 9.8 °C 7.7 °C 1018.5 hPa SSW 6.4 km/h 17.7 km/h 87 % 0.0 mm
03:37 9.9 °C 7.8 °C 1018.5 hPa SSW 4.8 km/h 20.9 km/h 87 % 0.0 mm
03:42 9.9 °C 7.8 °C 1018.5 hPa SSW 8.0 km/h 20.9 km/h 87 % 0.0 mm
03:52 9.9 °C 7.8 °C 1018.5 hPa SSW 6.4 km/h 17.7 km/h 87 % 0.0 mm
03:57 9.9 °C 7.8 °C 1018.5 hPa SSW 6.4 km/h 17.7 km/h 87 % 0.0 mm
04:02 9.9 °C 7.8 °C 1018.5 hPa West 9.7 km/h 20.9 km/h 87 % 0.0 mm
04:07 9.9 °C 7.8 °C 1018.8 hPa SW 8.0 km/h 20.9 km/h 87 % 0.0 mm
04:12 9.9 °C 7.8 °C 1018.8 hPa SW 4.8 km/h 16.1 km/h 87 % 0.0 mm
04:17 9.9 °C 7.8 °C 1018.8 hPa WSW 17.7 km/h 17.7 km/h 87 % 0.0 mm
04:22 9.9 °C 7.8 °C 1018.8 hPa SSW 3.2 km/h 20.9 km/h 87 % 0.0 mm
04:27 9.8 °C 7.9 °C 1018.8 hPa WSW 4.8 km/h 20.9 km/h 88 % 0.0 mm
04:32 9.8 °C 7.9 °C 1018.8 hPa WSW 9.7 km/h 20.9 km/h 88 % 0.0 mm
04:37 9.7 °C 7.8 °C 1018.8 hPa WSW 9.7 km/h 17.7 km/h 88 % 0.0 mm
04:42 9.6 °C 7.7 °C 1019.2 hPa WSW 8.0 km/h 16.1 km/h 88 % 0.0 mm
04:47 9.6 °C 7.9 °C 1019.2 hPa WSW 11.3 km/h 16.1 km/h 89 % 0.0 mm
04:52 9.6 °C 7.9 °C 1019.2 hPa SW 14.5 km/h 16.1 km/h 89 % 0.0 mm
04:57 9.5 °C 7.8 °C 1019.2 hPa WSW 8.0 km/h 19.3 km/h 89 % 0.0 mm
05:02 9.5 °C 7.8 °C 1019.2 hPa WSW 6.4 km/h 19.3 km/h 89 % 0.0 mm
05:07 9.5 °C 7.8 °C 1019.2 hPa SW 3.2 km/h 14.5 km/h 89 % 0.0 mm
05:12 9.5 °C 7.8 °C 1019.2 hPa West 4.8 km/h 16.1 km/h 89 % 0.0 mm
05:17 9.5 °C 7.8 °C 1019.2 hPa SW 4.8 km/h 16.1 km/h 89 % 0.0 mm
05:22 9.4 °C 7.7 °C 1019.2 hPa SW 3.2 km/h 14.5 km/h 89 % 0.0 mm
05:27 9.4 °C 7.8 °C 1019.5 hPa West 4.8 km/h 12.9 km/h 90 % 0.0 mm
05:32 9.4 °C 7.8 °C 1019.5 hPa WSW 4.8 km/h 12.9 km/h 90 % 0.0 mm
05:37 9.4 °C 7.8 °C 1019.5 hPa West 6.4 km/h 14.5 km/h 90 % 0.0 mm
05:42 9.5 °C 7.9 °C 1019.5 hPa South 3.2 km/h 17.7 km/h 90 % 0.0 mm
05:47 9.5 °C 7.9 °C 1019.5 hPa West 16.1 km/h 17.7 km/h 90 % 0.0 mm
05:52 9.5 °C 7.9 °C 1019.5 hPa West 3.2 km/h 17.7 km/h 90 % 0.0 mm
05:57 9.5 °C 7.9 °C 1019.5 hPa WSW 8.0 km/h 17.7 km/h 90 % 0.0 mm
06:02 9.5 °C 7.9 °C 1019.5 hPa SW 4.8 km/h 17.7 km/h 90 % 0.0 mm
06:12 9.5 °C 7.9 °C 1019.9 hPa WSW 11.3 km/h 19.3 km/h 90 % 0.0 mm
06:17 9.5 °C 7.9 °C 1019.9 hPa West 4.8 km/h 19.3 km/h 90 % 0.0 mm
06:22 9.4 °C 7.8 °C 1019.9 hPa SW 8.0 km/h 16.1 km/h 90 % 0.0 mm
06:27 9.5 °C 7.9 °C 1019.9 hPa WSW 8.0 km/h 16.1 km/h 90 % 0.0 mm
06:32 9.5 °C 8.1 °C 1019.9 hPa SW 4.8 km/h 16.1 km/h 91 % 0.0 mm
06:42 9.5 °C 8.1 °C 1019.9 hPa WSW 8.0 km/h 16.1 km/h 91 % 0.0 mm
06:47 9.6 °C 8.2 °C 1019.9 hPa SW 6.4 km/h 16.1 km/h 91 % 0.0 mm
07:02 9.7 °C 8.1 °C 1020.2 hPa SW 4.8 km/h 16.1 km/h 90 % 0.0 mm
07:07 9.7 °C 8.1 °C 1020.2 hPa West 11.3 km/h 16.1 km/h 90 % 0.0 mm
07:12 9.8 °C 8.2 °C 1020.2 hPa SW 4.8 km/h 16.1 km/h 90 % 0.0 mm
07:17 9.9 °C 8.3 °C 1020.2 hPa WSW 3.2 km/h 14.5 km/h 90 % 0.0 mm
07:22 10.1 °C 8.4 °C 1020.5 hPa SW 4.8 km/h 14.5 km/h 89 % 0.0 mm
07:27 10.2 °C 8.5 °C 1020.5 hPa WSW 1.6 km/h 12.9 km/h 89 % 0.0 mm
07:32 10.3 °C 8.6 °C 1020.5 hPa SSW 4.8 km/h 12.9 km/h 89 % 0.0 mm
07:42 10.5 °C 8.6 °C 1020.5 hPa SW 6.4 km/h 14.5 km/h 88 % 0.0 mm
07:47 10.6 °C 8.7 °C 1020.5 hPa WSW 8.0 km/h 14.5 km/h 88 % 0.0 mm
07:52 10.7 °C 8.8 °C 1020.5 hPa WSW 11.3 km/h 16.1 km/h 88 % 0.0 mm
07:57 10.7 °C 8.6 °C 1020.5 hPa SW 6.4 km/h 24.1 km/h 87 % 0.0 mm
08:02 10.8 °C 8.7 °C 1020.5 hPa WSW 14.5 km/h 24.1 km/h 87 % 0.0 mm
08:12 11.1 °C 8.8 °C 1020.9 hPa WSW 8.0 km/h 19.3 km/h 86 % 0.0 mm
08:27 11.4 °C 9.0 °C 1020.9 hPa WNW 4.8 km/h 19.3 km/h 85 % 0.0 mm
08:32 11.4 °C 8.8 °C 1020.9 hPa West 4.8 km/h 19.3 km/h 84 % 0.0 mm
08:37 11.4 °C 8.6 °C 1020.9 hPa NW 12.9 km/h 17.7 km/h 83 % 0.0 mm
08:47 11.6 °C 8.8 °C 1021.2 hPa WSW 9.7 km/h 20.9 km/h 83 % 0.0 mm
08:52 11.6 °C 8.8 °C 1021.2 hPa WNW 4.8 km/h 20.9 km/h 83 % 0.0 mm
08:57 11.7 °C 8.9 °C 1021.2 hPa WSW 9.7 km/h 17.7 km/h 83 % 0.0 mm
09:02 11.8 °C 9.0 °C 1021.2 hPa WSW 9.7 km/h 16.1 km/h 83 % 0.0 mm
09:07 11.8 °C 8.6 °C 1021.2 hPa West 6.4 km/h 16.1 km/h 81 % 0.0 mm
09:12 12.1 °C 8.9 °C 1021.6 hPa WSW 9.7 km/h 16.1 km/h 81 % 0.0 mm
09:17 12.3 °C 8.8 °C 1021.6 hPa West 6.4 km/h 19.3 km/h 79 % 0.0 mm
09:22 12.4 °C 8.7 °C 1021.6 hPa West 8.0 km/h 20.9 km/h 78 % 0.0 mm
09:27 12.4 °C 8.7 °C 1021.6 hPa WSW 6.4 km/h 20.9 km/h 78 % 0.0 mm
09:32 12.5 °C 8.6 °C 1021.6 hPa WSW 12.9 km/h 20.9 km/h 77 % 0.0 mm
09:37 12.6 °C 8.5 °C 1021.6 hPa WSW 17.7 km/h 20.9 km/h 76 % 0.0 mm
09:42 12.8 °C 8.7 °C 1021.6 hPa West 6.4 km/h 22.5 km/h 76 % 0.0 mm
09:47 13.0 °C 8.7 °C 1021.6 hPa WSW 16.1 km/h 22.5 km/h 75 % 0.0 mm
09:52 12.9 °C 8.4 °C 1021.6 hPa WSW 11.3 km/h 22.5 km/h 74 % 0.0 mm
10:02 13.1 °C 8.8 °C 1021.6 hPa SW 6.4 km/h 25.7 km/h 75 % 0.0 mm
10:07 13.3 °C 9.0 °C 1021.6 hPa WSW 11.3 km/h 25.7 km/h 75 % 0.0 mm
10:12 13.4 °C 8.5 °C 1021.6 hPa WSW 8.0 km/h 24.1 km/h 72 % 0.0 mm
10:17 13.5 °C 8.8 °C 1021.6 hPa SSW 11.3 km/h 24.1 km/h 73 % 0.0 mm
10:22 13.8 °C 9.2 °C 1021.6 hPa West 14.5 km/h 24.1 km/h 74 % 0.0 mm
10:32 13.8 °C 8.0 °C 1021.6 hPa WSW 6.4 km/h 19.3 km/h 68 % 0.0 mm
10:37 13.9 °C 8.1 °C 1021.9 hPa West 6.4 km/h 22.5 km/h 68 % 0.0 mm
10:42 13.8 °C 8.2 °C 1021.6 hPa West 8.0 km/h 22.5 km/h 69 % 0.0 mm
10:47 13.9 °C 8.3 °C 1021.9 hPa WNW 11.3 km/h 20.9 km/h 69 % 0.0 mm
10:57 14.2 °C 8.2 °C 1021.9 hPa SW 8.0 km/h 22.5 km/h 67 % 0.0 mm
11:02 14.1 °C 7.4 °C 1021.9 hPa WSW 12.9 km/h 22.5 km/h 64 % 0.0 mm
11:07 14.1 °C 7.8 °C 1021.9 hPa WNW 9.7 km/h 22.5 km/h 66 % 0.0 mm
11:12 14.4 °C 7.7 °C 1021.9 hPa SW 8.0 km/h 22.5 km/h 64 % 0.0 mm
11:17 14.5 °C 7.8 °C 1021.9 hPa West 9.7 km/h 20.9 km/h 64 % 0.0 mm
11:22 14.8 °C 9.0 °C 1021.9 hPa SW 9.7 km/h 20.9 km/h 68 % 0.0 mm
11:32 15.2 °C 8.2 °C 1021.9 hPa West 14.5 km/h 24.1 km/h 63 % 0.0 mm
11:37 14.9 °C 7.7 °C 1021.9 hPa WSW 19.3 km/h 24.1 km/h 62 % 0.0 mm
11:42 14.9 °C 8.1 °C 1021.9 hPa West 4.8 km/h 25.7 km/h 64 % 0.0 mm
11:47 15.4 °C 8.4 °C 1021.9 hPa WSW 8.0 km/h 25.7 km/h 63 % 0.0 mm
11:52 15.4 °C 7.7 °C 1021.9 hPa WSW 14.5 km/h 25.7 km/h 60 % 0.0 mm
11:57 15.0 °C 7.5 °C 1022.2 hPa WSW 3.2 km/h 20.9 km/h 61 % 0.0 mm
12:02 15.2 °C 8.2 °C 1021.9 hPa NW 11.3 km/h 20.9 km/h 63 % 0.0 mm
12:07 15.1 °C 8.1 °C 1021.9 hPa WSW 11.3 km/h 19.3 km/h 63 % 0.0 mm
12:12 15.1 °C 7.9 °C 1021.9 hPa West 9.7 km/h 19.3 km/h 62 % 0.0 mm
12:17 15.3 °C 8.3 °C 1022.2 hPa West 8.0 km/h 17.7 km/h 63 % 0.0 mm
12:22 15.6 °C 8.3 °C 1021.9 hPa West 11.3 km/h 22.5 km/h 62 % 0.0 mm
12:27 15.8 °C 9.0 °C 1022.2 hPa WNW 14.5 km/h 22.5 km/h 64 % 0.0 mm
12:32 15.5 °C 7.8 °C 1022.2 hPa WNW 17.7 km/h 30.6 km/h 60 % 0.0 mm
12:42 15.1 °C 8.1 °C 1022.2 hPa WSW 9.7 km/h 30.6 km/h 63 % 0.0 mm
12:47 15.0 °C 7.8 °C 1022.2 hPa West 9.7 km/h 29.0 km/h 62 % 0.0 mm
12:52 15.3 °C 8.1 °C 1021.9 hPa West 8.0 km/h 24.1 km/h 62 % 0.0 mm
12:57 15.4 °C 7.7 °C 1021.9 hPa WSW 11.3 km/h 19.3 km/h 60 % 0.0 mm
13:02 15.4 °C 7.9 °C 1022.2 hPa WNW 11.3 km/h 22.5 km/h 61 % 0.0 mm
13:07 15.5 °C 8.2 °C 1022.2 hPa WSW 24.1 km/h 24.1 km/h 62 % 0.0 mm
13:12 15.8 °C 8.0 °C 1022.2 hPa West 14.5 km/h 25.7 km/h 60 % 0.0 mm
13:17 16.3 °C 8.3 °C 1021.9 hPa WSW 12.9 km/h 27.4 km/h 59 % 0.0 mm
13:22 16.6 °C 7.8 °C 1021.9 hPa WSW 12.9 km/h 27.4 km/h 56 % 0.0 mm
13:27 16.4 °C 7.9 °C 1021.9 hPa West 8.0 km/h 24.1 km/h 57 % 0.0 mm
13:32 16.2 °C 7.7 °C 1022.2 hPa WNW 11.3 km/h 24.1 km/h 57 % 0.0 mm
13:42 16.2 °C 8.2 °C 1021.9 hPa WNW 9.7 km/h 24.1 km/h 59 % 0.0 mm
13:47 16.1 °C 8.1 °C 1021.9 hPa NW 16.1 km/h 20.9 km/h 59 % 0.0 mm
13:52 16.3 °C 8.5 °C 1021.9 hPa West 14.5 km/h 20.9 km/h 60 % 0.0 mm
13:57 16.4 °C 7.1 °C 1021.9 hPa WSW 9.7 km/h 20.9 km/h 54 % 0.0 mm
14:02 16.6 °C 7.5 °C 1021.9 hPa WSW 25.7 km/h 25.7 km/h 55 % 0.0 mm
14:07 16.6 °C 8.0 °C 1021.9 hPa West 9.7 km/h 29.0 km/h 57 % 0.0 mm
14:12 16.6 °C 8.3 °C 1021.9 hPa WNW 12.9 km/h 30.6 km/h 58 % 0.0 mm
14:17 16.8 °C 8.2 °C 1021.9 hPa WNW 11.3 km/h 30.6 km/h 57 % 0.0 mm
14:22 17.2 °C 8.3 °C 1021.9 hPa West 12.9 km/h 30.6 km/h 56 % 0.0 mm
14:27 17.3 °C 8.2 °C 1021.9 hPa SW 9.7 km/h 27.4 km/h 55 % 0.0 mm
14:32 17.7 °C 9.1 °C 1021.9 hPa West 9.7 km/h 24.1 km/h 57 % 0.0 mm
14:37 17.8 °C 8.6 °C 1021.9 hPa West 9.7 km/h 24.1 km/h 55 % 0.0 mm
14:42 17.5 °C 8.6 °C 1021.9 hPa SW 6.4 km/h 24.1 km/h 56 % 0.0 mm
14:47 17.3 °C 9.0 °C 1021.9 hPa West 9.7 km/h 20.9 km/h 58 % 0.0 mm
14:52 17.3 °C 8.7 °C 1021.9 hPa WSW 14.5 km/h 22.5 km/h 57 % 0.0 mm
14:57 17.4 °C 8.8 °C 1021.9 hPa SW 9.7 km/h 22.5 km/h 57 % 0.0 mm
15:02 17.6 °C 8.7 °C 1021.6 hPa SSW 14.5 km/h 27.4 km/h 56 % 0.0 mm
15:07 17.4 °C 8.8 °C 1021.6 hPa West 12.9 km/h 27.4 km/h 57 % 0.0 mm
15:12 17.5 °C 8.6 °C 1021.6 hPa SW 6.4 km/h 27.4 km/h 56 % 0.0 mm
15:17 17.7 °C 9.3 °C 1021.6 hPa WNW 6.4 km/h 25.7 km/h 58 % 0.0 mm
15:22 18.0 °C 8.8 °C 1021.6 hPa WSW 11.3 km/h 19.3 km/h 55 % 0.0 mm
15:27 18.1 °C 9.2 °C 1021.6 hPa West 19.3 km/h 22.5 km/h 56 % 0.0 mm
15:32 18.3 °C 9.6 °C 1021.6 hPa WNW 6.4 km/h 25.7 km/h 57 % 0.0 mm
15:37 18.0 °C 8.8 °C 1021.6 hPa West 8.0 km/h 25.7 km/h 55 % 0.0 mm
15:42 17.9 °C 9.3 °C 1021.6 hPa WSW 9.7 km/h 25.7 km/h 57 % 0.0 mm
15:47 18.1 °C 9.2 °C 1021.6 hPa WSW 16.1 km/h 19.3 km/h 56 % 0.0 mm
15:52 18.2 °C 9.3 °C 1021.6 hPa WSW 4.8 km/h 16.1 km/h 56 % 0.0 mm
15:57 18.3 °C 8.8 °C 1021.6 hPa West 11.3 km/h 16.1 km/h 54 % 0.0 mm
16:02 17.9 °C 9.0 °C 1021.6 hPa WSW 11.3 km/h 24.1 km/h 56 % 0.0 mm
16:07 18.0 °C 9.1 °C 1021.6 hPa SSW 6.4 km/h 24.1 km/h 56 % 0.0 mm
16:12 18.3 °C 8.6 °C 1021.6 hPa SW 14.5 km/h 24.1 km/h 53 % 0.0 mm
16:17 18.4 °C 8.6 °C 1021.6 hPa WSW 8.0 km/h 20.9 km/h 53 % 0.0 mm
16:22 18.3 °C 8.6 °C 1021.6 hPa West 12.9 km/h 20.9 km/h 53 % 0.0 mm
16:27 18.2 °C 9.0 °C 1021.6 hPa WNW 12.9 km/h 20.9 km/h 55 % 0.0 mm
16:32 18.5 °C 9.3 °C 1021.6 hPa West 1.6 km/h 19.3 km/h 55 % 0.0 mm
16:37 18.9 °C 8.8 °C 1021.6 hPa West 9.7 km/h 17.7 km/h 52 % 0.0 mm
16:42 18.9 °C 8.8 °C 1021.6 hPa West 3.2 km/h 17.7 km/h 52 % 0.0 mm
16:52 19.1 °C 8.7 °C 1021.6 hPa West 3.2 km/h 22.5 km/h 51 % 0.0 mm
17:02 18.7 °C 9.5 °C 1021.6 hPa West 8.0 km/h 19.3 km/h 55 % 0.0 mm
17:12 18.8 °C 9.0 °C 1021.6 hPa WSW 8.0 km/h 17.7 km/h 53 % 0.0 mm
17:17 19.1 °C 9.0 °C 1021.6 hPa West 8.0 km/h 17.7 km/h 52 % 0.0 mm
17:22 19.0 °C 8.9 °C 1021.6 hPa WSW 8.0 km/h 17.7 km/h 52 % 0.0 mm
17:27 19.2 °C 9.1 °C 1021.6 hPa WSW 3.2 km/h 19.3 km/h 52 % 0.0 mm
17:32 19.3 °C 8.9 °C 1021.6 hPa West 6.4 km/h 19.3 km/h 51 % 0.0 mm
17:37 19.3 °C 9.5 °C 1021.6 hPa WSW 8.0 km/h 19.3 km/h 53 % 0.0 mm
17:42 19.2 °C 8.5 °C 1021.6 hPa WSW 12.9 km/h 17.7 km/h 50 % 0.0 mm
17:47 18.7 °C 8.6 °C 1021.6 hPa West 11.3 km/h 19.3 km/h 52 % 0.0 mm
17:52 18.5 °C 7.9 °C 1021.6 hPa WSW 3.2 km/h 19.3 km/h 50 % 0.0 mm
17:57 18.7 °C 8.6 °C 1021.6 hPa WSW 4.8 km/h 19.3 km/h 52 % 0.0 mm
18:02 18.8 °C 8.4 °C 1021.6 hPa WSW 16.1 km/h 22.5 km/h 51 % 0.0 mm
18:07 18.6 °C 8.3 °C 1021.6 hPa SSW 8.0 km/h 22.5 km/h 51 % 0.0 mm
18:12 18.8 °C 8.4 °C 1021.6 hPa SW 3.2 km/h 22.5 km/h 51 % 0.0 mm
18:17 19.2 °C 8.8 °C 1021.6 hPa WSW 14.5 km/h 19.3 km/h 51 % 0.0 mm
18:22 19.3 °C 8.6 °C 1021.6 hPa West 9.7 km/h 20.9 km/h 50 % 0.0 mm
18:32 18.8 °C 9.0 °C 1021.2 hPa WSW 4.8 km/h 20.9 km/h 53 % 0.0 mm
18:37 18.9 °C 9.1 °C 1021.2 hPa WNW 4.8 km/h 19.3 km/h 53 % 0.0 mm
18:42 19.2 °C 8.8 °C 1021.2 hPa WSW 6.4 km/h 14.5 km/h 51 % 0.0 mm
18:47 19.3 °C 8.9 °C 1021.2 hPa West 8.0 km/h 11.3 km/h 51 % 0.0 mm
18:52 18.8 °C 8.7 °C 1021.2 hPa WSW 6.4 km/h 17.7 km/h 52 % 0.0 mm
18:57 19.1 °C 9.0 °C 1021.2 hPa WSW 9.7 km/h 17.7 km/h 52 % 0.0 mm
19:02 19.2 °C 9.1 °C 1021.2 hPa West 9.7 km/h 17.7 km/h 52 % 0.0 mm
19:12 19.3 °C 8.9 °C 1021.2 hPa SSW 3.2 km/h 19.3 km/h 51 % 0.0 mm
19:17 19.3 °C 9.5 °C 1021.2 hPa West 4.8 km/h 19.3 km/h 53 % 0.0 mm
19:22 19.0 °C 9.2 °C 1021.2 hPa WSW 6.4 km/h 14.5 km/h 53 % 0.0 mm
19:27 18.8 °C 9.3 °C 1021.2 hPa SW 4.8 km/h 11.3 km/h 54 % 0.0 mm
19:32 18.8 °C 9.0 °C 1021.2 hPa SW 4.8 km/h 12.9 km/h 53 % 0.0 mm
19:37 18.9 °C 8.8 °C 1021.2 hPa WSW 4.8 km/h 12.9 km/h 52 % 0.0 mm
19:42 19.1 °C 9.6 °C 1021.2 hPa SW 1.6 km/h 12.9 km/h 54 % 0.0 mm
19:47 19.2 °C 9.4 °C 1021.2 hPa West 3.2 km/h 11.3 km/h 53 % 0.0 mm
19:52 19.1 °C 9.0 °C 1021.2 hPa West 8.0 km/h 11.3 km/h 52 % 0.0 mm
19:57 18.8 °C 9.0 °C 1021.2 hPa West 6.4 km/h 16.1 km/h 53 % 0.0 mm
20:07 18.2 °C 9.3 °C 1021.2 hPa West 6.4 km/h 17.7 km/h 56 % 0.0 mm
20:12 18.1 °C 9.4 °C 1021.2 hPa WSW 1.6 km/h 17.7 km/h 57 % 0.0 mm
20:17 17.9 °C 9.3 °C 1021.2 hPa West 3.2 km/h 12.9 km/h 57 % 0.0 mm
20:22 17.8 °C 9.4 °C 1021.6 hPa WSW 1.6 km/h 8.0 km/h 58 % 0.0 mm
20:27 17.7 °C 9.3 °C 1021.6 hPa WSW 1.6 km/h 4.8 km/h 58 % 0.0 mm
20:37 17.9 °C 9.5 °C 1021.6 hPa SW 4.8 km/h 4.8 km/h 58 % 0.0 mm
20:42 18.0 °C 9.4 °C 1021.6 hPa SW 3.2 km/h 6.4 km/h 57 % 0.0 mm
20:52 17.9 °C 9.3 °C 1021.6 hPa SW 3.2 km/h 11.3 km/h 57 % 0.0 mm
20:57 17.8 °C 8.9 °C 1021.6 hPa WSW 3.2 km/h 11.3 km/h 56 % 0.0 mm
21:02 17.6 °C 9.2 °C 1021.6 hPa SW 3.2 km/h 9.7 km/h 58 % 0.0 mm
21:07 17.4 °C 9.1 °C 1021.6 hPa SW 6.4 km/h 9.7 km/h 58 % 0.0 mm
21:12 17.3 °C 9.2 °C 1021.2 hPa SW 3.2 km/h 9.7 km/h 59 % 0.0 mm
21:17 17.1 °C 9.3 °C 1021.2 hPa SW 3.2 km/h 8.0 km/h 60 % 0.0 mm
21:22 16.8 °C 9.5 °C 1021.6 hPa Calm   6.4 km/h 62 % 0.0 mm
21:32 16.2 °C 9.6 °C 1021.6 hPa Calm   4.8 km/h 65 % 0.0 mm
21:37 15.9 °C 10.0 °C 1021.6 hPa Calm   3.2 km/h 68 % 0.0 mm
21:42 15.6 °C 9.9 °C 1021.6 hPa Calm   3.2 km/h 69 % 0.0 mm
21:47 15.3 °C 9.6 °C 1021.6 hPa Calm   1.6 km/h 69 % 0.0 mm
21:52 15.0 °C 10.0 °C 1021.6 hPa Calm     72 % 0.0 mm
21:57 14.7 °C 10.1 °C 1021.6 hPa Calm     74 % 0.0 mm
22:02 14.4 °C 10.0 °C 1021.6 hPa Calm     75 % 0.0 mm
22:07 14.2 °C 10.0 °C 1021.6 hPa Calm     76 % 0.0 mm
22:12 14.1 °C 9.9 °C 1021.6 hPa Calm     76 % 0.0 mm
22:17 14.0 °C 10.0 °C 1021.6 hPa Calm     77 % 0.0 mm
22:22 13.9 °C 9.9 °C 1021.6 hPa Calm     77 % 0.0 mm
22:27 13.9 °C 10.1 °C 1021.6 hPa Calm     78 % 0.0 mm
22:32 13.6 °C 9.8 °C 1021.6 hPa Calm     78 % 0.0 mm
22:37 13.3 °C 9.7 °C 1021.6 hPa Calm     79 % 0.0 mm
22:42 13.0 °C 9.6 °C 1021.9 hPa Calm     80 % 0.0 mm
22:47 12.8 °C 9.6 °C 1021.9 hPa Calm     81 % 0.0 mm
22:52 12.7 °C 9.7 °C 1021.6 hPa Calm     82 % 0.0 mm
22:57 12.6 °C 9.6 °C 1021.9 hPa Calm     82 % 0.0 mm
23:02 12.6 °C 9.6 °C 1021.9 hPa Calm     82 % 0.0 mm
23:12 12.4 °C 9.6 °C 1021.6 hPa Calm     83 % 0.0 mm
23:17 12.3 °C 9.5 °C 1021.6 hPa Calm     83 % 0.0 mm
23:22 12.2 °C 9.4 °C 1021.6 hPa Calm     83 % 0.0 mm
23:27 12.2 °C 9.4 °C 1021.9 hPa Calm     83 % 0.0 mm
23:32 12.1 °C 9.5 °C 1021.6 hPa Calm     84 % 0.0 mm
23:37 11.9 °C 9.5 °C 1021.6 hPa Calm     85 % 0.0 mm
23:42 11.9 °C 9.5 °C 1021.6 hPa Calm     85 % 0.0 mm
23:47 11.8 °C 9.4 °C 1021.6 hPa Calm     85 % 0.0 mm
23:52 11.7 °C 9.4 °C 1021.6 hPa Calm     86 % 0.0 mm
23:57 11.6 °C 9.3 °C 1021.6 hPa Calm     86 % 0.0 mm
Meteo18
Compliments of Weather Underground - 4 mb

Script developed by  Jim McMurry - jmcmurry@mwt.net Adapted for the template by  Wim van der Kuil - Leuven-Template.eu

You find our weather info also at:

European Weather Network

Weather Underground

Equipment we use:

Weather-station
Davis Vue

Weather-program
Meteohub

Weather-server
Raspberry PI 2 B+

Provider
1 and 1

Davis Vue

Meteohub

Raspberry PI 2 B+

1 and 1